Year,Month,Day,Hour,Minute,Value (Times are PST for insolation in W/m^2)
2014,07,05,00,00,0.00
2014,07,05,00,01,0.00
2014,07,05,00,02,0.00
2014,07,05,00,03,0.00
2014,07,05,00,04,0.00
2014,07,05,00,05,0.00
2014,07,05,00,06,0.00
2014,07,05,00,07,0.00
2014,07,05,00,08,0.00
2014,07,05,00,09,0.00
2014,07,05,00,10,0.00
2014,07,05,00,11,0.00
2014,07,05,00,12,0.00
2014,07,05,00,13,0.00
2014,07,05,00,14,0.00
2014,07,05,00,15,0.00
2014,07,05,00,16,0.00
2014,07,05,00,17,0.00
2014,07,05,00,18,0.00
2014,07,05,00,19,0.00
2014,07,05,00,20,0.00
2014,07,05,00,21,0.00
2014,07,05,00,22,0.00
2014,07,05,00,23,0.00
2014,07,05,00,24,0.00
2014,07,05,00,25,0.00
2014,07,05,00,26,0.00
2014,07,05,00,27,0.00
2014,07,05,00,28,0.00
2014,07,05,00,29,0.00
2014,07,05,00,30,0.00
2014,07,05,00,31,0.00
2014,07,05,00,32,0.00
2014,07,05,00,33,0.00
2014,07,05,00,34,0.00
2014,07,05,00,35,0.00
2014,07,05,00,36,0.00
2014,07,05,00,37,0.00
2014,07,05,00,38,0.00
2014,07,05,00,39,0.00
2014,07,05,00,40,0.00
2014,07,05,00,41,0.00
2014,07,05,00,42,0.00
2014,07,05,00,43,0.00
2014,07,05,00,44,0.00
2014,07,05,00,45,0.00
2014,07,05,00,46,0.00
2014,07,05,00,47,0.00
2014,07,05,00,48,0.00
2014,07,05,00,49,0.00
2014,07,05,00,50,0.00
2014,07,05,00,51,0.00
2014,07,05,00,52,0.00
2014,07,05,00,53,0.00
2014,07,05,00,54,0.00
2014,07,05,00,55,0.00
2014,07,05,00,56,0.00
2014,07,05,00,57,0.00
2014,07,05,00,58,0.00
2014,07,05,00,59,0.00
2014,07,05,01,00,0.00
2014,07,05,01,01,0.00
2014,07,05,01,02,0.00
2014,07,05,01,03,0.00
2014,07,05,01,04,0.00
2014,07,05,01,05,0.00
2014,07,05,01,06,0.00
2014,07,05,01,07,0.00
2014,07,05,01,08,0.00
2014,07,05,01,09,0.00
2014,07,05,01,10,0.00
2014,07,05,01,11,0.00
2014,07,05,01,12,0.00
2014,07,05,01,13,0.00
2014,07,05,01,14,0.00
2014,07,05,01,15,0.00
2014,07,05,01,16,0.00
2014,07,05,01,17,0.00
2014,07,05,01,18,0.00
2014,07,05,01,19,0.00
2014,07,05,01,20,0.00
2014,07,05,01,21,0.00
2014,07,05,01,22,0.00
2014,07,05,01,23,0.00
2014,07,05,01,24,0.00
2014,07,05,01,25,0.00
2014,07,05,01,26,0.00
2014,07,05,01,27,0.00
2014,07,05,01,28,0.00
2014,07,05,01,29,0.00
2014,07,05,01,30,0.00
2014,07,05,01,31,0.00
2014,07,05,01,32,0.00
2014,07,05,01,33,0.00
2014,07,05,01,34,0.00
2014,07,05,01,35,0.00
2014,07,05,01,36,0.00
2014,07,05,01,37,0.00
2014,07,05,01,38,0.00
2014,07,05,01,39,0.00
2014,07,05,01,40,0.00
2014,07,05,01,41,0.00
2014,07,05,01,42,0.00
2014,07,05,01,43,0.00
2014,07,05,01,44,0.00
2014,07,05,01,45,0.00
2014,07,05,01,46,0.00
2014,07,05,01,47,0.00
2014,07,05,01,48,0.00
2014,07,05,01,49,0.00
2014,07,05,01,50,0.00
2014,07,05,01,51,0.00
2014,07,05,01,52,0.00
2014,07,05,01,53,0.00
2014,07,05,01,54,0.00
2014,07,05,01,55,0.00
2014,07,05,01,56,0.00
2014,07,05,01,57,0.00
2014,07,05,01,58,0.00
2014,07,05,01,59,0.00
2014,07,05,02,00,0.00
2014,07,05,02,01,0.00
2014,07,05,02,02,0.00
2014,07,05,02,03,0.00
2014,07,05,02,04,0.00
2014,07,05,02,05,0.00
2014,07,05,02,06,0.00
2014,07,05,02,07,0.00
2014,07,05,02,08,0.00
2014,07,05,02,09,0.00
2014,07,05,02,10,0.00
2014,07,05,02,11,0.00
2014,07,05,02,12,0.00
2014,07,05,02,13,0.00
2014,07,05,02,14,0.00
2014,07,05,02,15,0.00
2014,07,05,02,16,0.00
2014,07,05,02,17,0.00
2014,07,05,02,18,0.00
2014,07,05,02,19,0.00
2014,07,05,02,20,0.00
2014,07,05,02,21,0.00
2014,07,05,02,22,0.00
2014,07,05,02,23,0.00
2014,07,05,02,24,0.00
2014,07,05,02,25,0.00
2014,07,05,02,26,0.00
2014,07,05,02,27,0.00
2014,07,05,02,28,0.00
2014,07,05,02,29,0.00
2014,07,05,02,30,0.00
2014,07,05,02,31,0.00
2014,07,05,02,32,0.00
2014,07,05,02,33,0.00
2014,07,05,02,34,0.00
2014,07,05,02,35,0.00
2014,07,05,02,36,0.00
2014,07,05,02,37,0.00
2014,07,05,02,38,0.00
2014,07,05,02,39,0.00
2014,07,05,02,40,0.00
2014,07,05,02,41,0.00
2014,07,05,02,42,0.00
2014,07,05,02,43,0.00
2014,07,05,02,44,0.00
2014,07,05,02,45,0.00
2014,07,05,02,46,0.00
2014,07,05,02,47,0.00
2014,07,05,02,48,0.00
2014,07,05,02,49,0.00
2014,07,05,02,50,0.00
2014,07,05,02,51,0.00
2014,07,05,02,52,0.00
2014,07,05,02,53,0.00
2014,07,05,02,54,0.00
2014,07,05,02,55,0.00
2014,07,05,02,56,0.00
2014,07,05,02,57,0.00
2014,07,05,02,58,0.00
2014,07,05,02,59,0.00
2014,07,05,03,00,0.00
2014,07,05,03,01,0.00
2014,07,05,03,02,0.00
2014,07,05,03,03,0.00
2014,07,05,03,04,0.00
2014,07,05,03,05,0.00
2014,07,05,03,06,0.00
2014,07,05,03,07,0.00
2014,07,05,03,08,0.00
2014,07,05,03,09,0.00
2014,07,05,03,10,0.00
2014,07,05,03,11,0.00
2014,07,05,03,12,0.00
2014,07,05,03,13,0.00
2014,07,05,03,14,0.00
2014,07,05,03,15,0.00
2014,07,05,03,16,0.00
2014,07,05,03,17,0.00
2014,07,05,03,18,0.00
2014,07,05,03,19,0.00
2014,07,05,03,20,0.00
2014,07,05,03,21,0.00
2014,07,05,03,22,0.00
2014,07,05,03,23,0.00
2014,07,05,03,24,0.00
2014,07,05,03,25,0.00
2014,07,05,03,26,0.00
2014,07,05,03,27,0.00
2014,07,05,03,28,0.00
2014,07,05,03,29,0.00
2014,07,05,03,30,0.00
2014,07,05,03,31,0.00
2014,07,05,03,32,0.00
2014,07,05,03,33,0.00
2014,07,05,03,34,0.00
2014,07,05,03,35,0.00
2014,07,05,03,36,0.00
2014,07,05,03,37,0.00
2014,07,05,03,38,0.00
2014,07,05,03,39,0.00
2014,07,05,03,40,0.00
2014,07,05,03,41,0.00
2014,07,05,03,42,0.00
2014,07,05,03,43,0.00
2014,07,05,03,44,0.00
2014,07,05,03,45,0.00
2014,07,05,03,46,0.00
2014,07,05,03,47,0.00
2014,07,05,03,48,0.00
2014,07,05,03,49,0.00
2014,07,05,03,50,0.00
2014,07,05,03,51,0.00
2014,07,05,03,52,0.00
2014,07,05,03,53,0.00
2014,07,05,03,54,0.00
2014,07,05,03,55,0.00
2014,07,05,03,56,0.00
2014,07,05,03,57,0.00
2014,07,05,03,58,0.00
2014,07,05,03,59,0.00
2014,07,05,04,00,0.00
2014,07,05,04,01,0.00
2014,07,05,04,02,0.00
2014,07,05,04,03,0.00
2014,07,05,04,04,0.00
2014,07,05,04,05,0.00
2014,07,05,04,06,0.00
2014,07,05,04,07,0.00
2014,07,05,04,08,0.00
2014,07,05,04,09,0.00
2014,07,05,04,10,0.00
2014,07,05,04,11,0.00
2014,07,05,04,12,0.00
2014,07,05,04,13,0.00
2014,07,05,04,14,0.00
2014,07,05,04,15,0.00
2014,07,05,04,16,0.00
2014,07,05,04,17,0.00
2014,07,05,04,18,0.00
2014,07,05,04,19,0.00
2014,07,05,04,20,0.00
2014,07,05,04,21,0.00
2014,07,05,04,22,0.00
2014,07,05,04,23,0.00
2014,07,05,04,24,0.00
2014,07,05,04,25,0.00
2014,07,05,04,26,0.00
2014,07,05,04,27,0.00
2014,07,05,04,28,0.00
2014,07,05,04,29,0.00
2014,07,05,04,30,0.00
2014,07,05,04,31,0.00
2014,07,05,04,32,0.00
2014,07,05,04,33,0.00
2014,07,05,04,34,0.00
2014,07,05,04,35,0.00
2014,07,05,04,36,0.00
2014,07,05,04,37,0.00
2014,07,05,04,38,0.00
2014,07,05,04,39,0.00
2014,07,05,04,40,0.00
2014,07,05,04,41,0.00
2014,07,05,04,42,0.00
2014,07,05,04,43,0.00
2014,07,05,04,44,0.00
2014,07,05,04,45,0.00
2014,07,05,04,46,0.00
2014,07,05,04,47,0.00
2014,07,05,04,48,0.00
2014,07,05,04,49,0.00
2014,07,05,04,50,0.00
2014,07,05,04,51,0.00
2014,07,05,04,52,0.00
2014,07,05,04,53,0.00
2014,07,05,04,54,0.00
2014,07,05,04,55,0.00
2014,07,05,04,56,0.00
2014,07,05,04,57,0.00
2014,07,05,04,58,0.00
2014,07,05,04,59,0.00
2014,07,05,05,00,0.00
2014,07,05,05,01,0.00
2014,07,05,05,02,0.00
2014,07,05,05,03,0.00
2014,07,05,05,04,0.00
2014,07,05,05,05,0.00
2014,07,05,05,06,0.00
2014,07,05,05,07,0.00
2014,07,05,05,08,0.00
2014,07,05,05,09,0.00
2014,07,05,05,10,0.00
2014,07,05,05,11,0.00
2014,07,05,05,12,0.00
2014,07,05,05,13,0.00
2014,07,05,05,14,0.00
2014,07,05,05,15,3.50
2014,07,05,05,16,5.00
2014,07,05,05,17,5.00
2014,07,05,05,18,5.00
2014,07,05,05,19,5.00
2014,07,05,05,20,5.00
2014,07,05,05,21,5.00
2014,07,05,05,22,5.00
2014,07,05,05,23,6.30
2014,07,05,05,24,7.00
2014,07,05,05,25,7.00
2014,07,05,05,26,7.20
2014,07,05,05,27,9.00
2014,07,05,05,28,9.00
2014,07,05,05,29,9.00
2014,07,05,05,30,10.00
2014,07,05,05,31,11.00
2014,07,05,05,32,11.70
2014,07,05,05,33,12.00
2014,07,05,05,34,12.00
2014,07,05,05,35,12.00
2014,07,05,05,36,12.00
2014,07,05,05,37,12.00
2014,07,05,05,38,12.00
2014,07,05,05,39,13.00
2014,07,05,05,40,14.00
2014,07,05,05,41,14.00
2014,07,05,05,42,14.00
2014,07,05,05,43,14.00
2014,07,05,05,44,13.70
2014,07,05,05,45,12.00
2014,07,05,05,46,11.70
2014,07,05,05,47,11.00
2014,07,05,05,48,11.00
2014,07,05,05,49,11.00
2014,07,05,05,50,11.00
2014,07,05,05,51,11.90
2014,07,05,05,52,12.00
2014,07,05,05,53,12.00
2014,07,05,05,54,12.00
2014,07,05,05,55,12.00
2014,07,05,05,56,12.00
2014,07,05,05,57,12.00
2014,07,05,05,58,13.40
2014,07,05,05,59,14.00
2014,07,05,06,00,15.80
2014,07,05,06,01,16.00
2014,07,05,06,02,16.00
2014,07,05,06,03,16.70
2014,07,05,06,04,18.50
2014,07,05,06,05,19.00
2014,07,05,06,06,20.30
2014,07,05,06,07,21.00
2014,07,05,06,08,21.00
2014,07,05,06,09,21.00
2014,07,05,06,10,21.40
2014,07,05,06,11,23.00
2014,07,05,06,12,24.20
2014,07,05,06,13,28.00
2014,07,05,06,14,32.90
2014,07,05,06,15,38.50
2014,07,05,06,16,41.70
2014,07,05,06,17,48.30
2014,07,05,06,18,56.70
2014,07,05,06,19,64.00
2014,07,05,06,20,68.10
2014,07,05,06,21,70.00
2014,07,05,06,22,71.00
2014,07,05,06,23,74.50
2014,07,05,06,24,76.70
2014,07,05,06,25,77.00
2014,07,05,06,26,78.90
2014,07,05,06,27,78.70
2014,07,05,06,28,75.80
2014,07,05,06,29,71.20
2014,07,05,06,30,71.00
2014,07,05,06,31,74.90
2014,07,05,06,32,81.90
2014,07,05,06,33,88.80
2014,07,05,06,34,94.30
2014,07,05,06,35,97.10
2014,07,05,06,36,98.50
2014,07,05,06,37,101.20
2014,07,05,06,38,105.30
2014,07,05,06,39,108.00
2014,07,05,06,40,111.50
2014,07,05,06,41,113.70
2014,07,05,06,42,115.70
2014,07,05,06,43,116.10
2014,07,05,06,44,118.30
2014,07,05,06,45,120.20
2014,07,05,06,46,121.00
2014,07,05,06,47,121.00
2014,07,05,06,48,120.40
2014,07,05,06,49,120.00
2014,07,05,06,50,120.00
2014,07,05,06,51,120.00
2014,07,05,06,52,117.70
2014,07,05,06,53,113.40
2014,07,05,06,54,110.40
2014,07,05,06,55,108.10
2014,07,05,06,56,107.00
2014,07,05,06,57,105.80
2014,07,05,06,58,105.00
2014,07,05,06,59,105.00
2014,07,05,07,00,105.00
2014,07,05,07,01,109.60
2014,07,05,07,02,113.80
2014,07,05,07,03,116.70
2014,07,05,07,04,120.20
2014,07,05,07,05,124.00
2014,07,05,07,06,126.20
2014,07,05,07,07,127.80
2014,07,05,07,08,128.00
2014,07,05,07,09,124.50
2014,07,05,07,10,118.80
2014,07,05,07,11,113.20
2014,07,05,07,12,109.40
2014,07,05,07,13,106.00
2014,07,05,07,14,105.00
2014,07,05,07,15,107.70
2014,07,05,07,16,110.50
2014,07,05,07,17,109.20
2014,07,05,07,18,107.00
2014,07,05,07,19,107.50
2014,07,05,07,20,109.00
2014,07,05,07,21,108.20
2014,07,05,07,22,106.00
2014,07,05,07,23,104.30
2014,07,05,07,24,101.10
2014,07,05,07,25,92.30
2014,07,05,07,26,87.90
2014,07,05,07,27,82.30
2014,07,05,07,28,70.10
2014,07,05,07,29,64.20
2014,07,05,07,30,62.50
2014,07,05,07,31,58.70
2014,07,05,07,32,63.30
2014,07,05,07,33,60.20
2014,07,05,07,34,61.50
2014,07,05,07,35,62.00
2014,07,05,07,36,104.80
2014,07,05,07,37,279.90
2014,07,05,07,38,278.80
2014,07,05,07,39,248.00
2014,07,05,07,40,229.00
2014,07,05,07,41,312.60
2014,07,05,07,42,346.00
2014,07,05,07,43,310.40
2014,07,05,07,44,303.90
2014,07,05,07,45,305.70
2014,07,05,07,46,291.30
2014,07,05,07,47,308.40
2014,07,05,07,48,288.00
2014,07,05,07,49,396.00
2014,07,05,07,50,425.20
2014,07,05,07,51,417.00
2014,07,05,07,52,223.60
2014,07,05,07,53,203.20
2014,07,05,07,54,199.00
2014,07,05,07,55,199.00
2014,07,05,07,56,199.50
2014,07,05,07,57,201.20
2014,07,05,07,58,203.40
2014,07,05,07,59,206.30
2014,07,05,08,00,210.60
2014,07,05,08,01,212.60
2014,07,05,08,02,208.40
2014,07,05,08,03,204.70
2014,07,05,08,04,201.10
2014,07,05,08,05,196.50
2014,07,05,08,06,185.80
2014,07,05,08,07,177.40
2014,07,05,08,08,171.70
2014,07,05,08,09,162.90
2014,07,05,08,10,152.30
2014,07,05,08,11,149.90
2014,07,05,08,12,157.70
2014,07,05,08,13,165.50
2014,07,05,08,14,173.00
2014,07,05,08,15,180.70
2014,07,05,08,16,192.00
2014,07,05,08,17,199.30
2014,07,05,08,18,199.90
2014,07,05,08,19,197.60
2014,07,05,08,20,188.90
2014,07,05,08,21,180.20
2014,07,05,08,22,178.50
2014,07,05,08,23,171.40
2014,07,05,08,24,159.30
2014,07,05,08,25,152.00
2014,07,05,08,26,155.80
2014,07,05,08,27,170.60
2014,07,05,08,28,187.70
2014,07,05,08,29,198.80
2014,07,05,08,30,202.90
2014,07,05,08,31,205.10
2014,07,05,08,32,204.70
2014,07,05,08,33,204.00
2014,07,05,08,34,205.70
2014,07,05,08,35,210.80
2014,07,05,08,36,213.70
2014,07,05,08,37,232.20
2014,07,05,08,38,240.80
2014,07,05,08,39,245.00
2014,07,05,08,40,243.00
2014,07,05,08,41,233.30
2014,07,05,08,42,230.00
2014,07,05,08,43,206.50
2014,07,05,08,44,195.30
2014,07,05,08,45,199.20
2014,07,05,08,46,209.00
2014,07,05,08,47,219.90
2014,07,05,08,48,228.80
2014,07,05,08,49,248.20
2014,07,05,08,50,257.00
2014,07,05,08,51,257.00
2014,07,05,08,52,254.90
2014,07,05,08,53,250.00
2014,07,05,08,54,261.20
2014,07,05,08,55,274.40
2014,07,05,08,56,236.50
2014,07,05,08,57,246.10
2014,07,05,08,58,269.90
2014,07,05,08,59,295.80
2014,07,05,09,00,320.00
2014,07,05,09,01,356.30
2014,07,05,09,02,414.00
2014,07,05,09,03,415.70
2014,07,05,09,04,387.20
2014,07,05,09,05,335.50
2014,07,05,09,06,309.40
2014,07,05,09,07,273.10
2014,07,05,09,08,250.50
2014,07,05,09,09,256.50
2014,07,05,09,10,266.30
2014,07,05,09,11,277.30
2014,07,05,09,12,281.70
2014,07,05,09,13,256.60
2014,07,05,09,14,236.00
2014,07,05,09,15,219.40
2014,07,05,09,16,201.00
2014,07,05,09,17,187.60
2014,07,05,09,18,183.00
2014,07,05,09,19,183.00
2014,07,05,09,20,183.00
2014,07,05,09,21,181.40
2014,07,05,09,22,177.50
2014,07,05,09,23,176.00
2014,07,05,09,24,177.40
2014,07,05,09,25,178.80
2014,07,05,09,26,184.40
2014,07,05,09,27,193.00
2014,07,05,09,28,203.10
2014,07,05,09,29,207.70
2014,07,05,09,30,209.00
2014,07,05,09,31,210.10
2014,07,05,09,32,208.50
2014,07,05,09,33,201.20
2014,07,05,09,34,189.90
2014,07,05,09,35,179.20
2014,07,05,09,36,173.60
2014,07,05,09,37,171.00
2014,07,05,09,38,171.00
2014,07,05,09,39,171.40
2014,07,05,09,40,174.10
2014,07,05,09,41,182.10
2014,07,05,09,42,191.00
2014,07,05,09,43,199.00
2014,07,05,09,44,204.00
2014,07,05,09,45,204.90
2014,07,05,09,46,211.00
2014,07,05,09,47,219.00
2014,07,05,09,48,226.50
2014,07,05,09,49,234.30
2014,07,05,09,50,243.40
2014,07,05,09,51,251.60
2014,07,05,09,52,257.50
2014,07,05,09,53,256.90
2014,07,05,09,54,247.20
2014,07,05,09,55,236.00
2014,07,05,09,56,229.50
2014,07,05,09,57,231.70
2014,07,05,09,58,240.40
2014,07,05,09,59,256.80
2014,07,05,10,00,276.30
2014,07,05,10,01,298.40
2014,07,05,10,02,320.00
2014,07,05,10,03,329.00
2014,07,05,10,04,353.00
2014,07,05,10,05,348.30
2014,07,05,10,06,332.20
2014,07,05,10,07,303.20
2014,07,05,10,08,269.60
2014,07,05,10,09,243.30
2014,07,05,10,10,228.60
2014,07,05,10,11,226.00
2014,07,05,10,12,231.10
2014,07,05,10,13,241.70
2014,07,05,10,14,255.40
2014,07,05,10,15,268.50
2014,07,05,10,16,275.00
2014,07,05,10,17,278.50
2014,07,05,10,18,270.90
2014,07,05,10,19,254.00
2014,07,05,10,20,237.50
2014,07,05,10,21,222.30
2014,07,05,10,22,209.50
2014,07,05,10,23,197.90
2014,07,05,10,24,188.30
2014,07,05,10,25,180.40
2014,07,05,10,26,174.50
2014,07,05,10,27,168.40
2014,07,05,10,28,162.80
2014,07,05,10,29,162.30
2014,07,05,10,30,165.30
2014,07,05,10,31,173.50
2014,07,05,10,32,183.90
2014,07,05,10,33,194.40
2014,07,05,10,34,204.30
2014,07,05,10,35,213.70
2014,07,05,10,36,224.60
2014,07,05,10,37,237.70
2014,07,05,10,38,253.80
2014,07,05,10,39,270.30
2014,07,05,10,40,283.70
2014,07,05,10,41,284.70
2014,07,05,10,42,275.80
2014,07,05,10,43,265.50
2014,07,05,10,44,250.70
2014,07,05,10,45,239.70
2014,07,05,10,46,232.90
2014,07,05,10,47,230.00
2014,07,05,10,48,233.50
2014,07,05,10,49,242.10
2014,07,05,10,50,251.00
2014,07,05,10,51,254.70
2014,07,05,10,52,255.00
2014,07,05,10,53,249.30
2014,07,05,10,54,241.30
2014,07,05,10,55,231.70
2014,07,05,10,56,225.20
2014,07,05,10,57,221.90
2014,07,05,10,58,222.30
2014,07,05,10,59,223.00
2014,07,05,11,00,224.70
2014,07,05,11,01,230.20
2014,07,05,11,02,233.00
2014,07,05,11,03,223.90
2014,07,05,11,04,211.80
2014,07,05,11,05,198.80
2014,07,05,11,06,188.90
2014,07,05,11,07,184.10
2014,07,05,11,08,181.50
2014,07,05,11,09,181.00
2014,07,05,11,10,190.90
2014,07,05,11,11,201.30
2014,07,05,11,12,214.30
2014,07,05,11,13,225.10
2014,07,05,11,14,232.10
2014,07,05,11,15,231.60
2014,07,05,11,16,226.40
2014,07,05,11,17,221.80
2014,07,05,11,18,225.10
2014,07,05,11,19,235.50
2014,07,05,11,20,244.60
2014,07,05,11,21,243.20
2014,07,05,11,22,231.40
2014,07,05,11,23,213.90
2014,07,05,11,24,203.50
2014,07,05,11,25,207.20
2014,07,05,11,26,219.30
2014,07,05,11,27,238.70
2014,07,05,11,28,257.40
2014,07,05,11,29,269.60
2014,07,05,11,30,277.10
2014,07,05,11,31,278.50
2014,07,05,11,32,279.90
2014,07,05,11,33,283.90
2014,07,05,11,34,286.60
2014,07,05,11,35,287.90
2014,07,05,11,36,285.60
2014,07,05,11,37,276.60
2014,07,05,11,38,269.20
2014,07,05,11,39,265.00
2014,07,05,11,40,266.10
2014,07,05,11,41,269.70
2014,07,05,11,42,268.10
2014,07,05,11,43,264.30
2014,07,05,11,44,258.00
2014,07,05,11,45,252.60
2014,07,05,11,46,249.00
2014,07,05,11,47,246.00
2014,07,05,11,48,247.90
2014,07,05,11,49,254.20
2014,07,05,11,50,263.70
2014,07,05,11,51,277.70
2014,07,05,11,52,292.70
2014,07,05,11,53,301.10
2014,07,05,11,54,302.00
2014,07,05,11,55,301.10
2014,07,05,11,56,297.50
2014,07,05,11,57,296.10
2014,07,05,11,58,301.50
2014,07,05,11,59,311.70
2014,07,05,12,00,323.10
2014,07,05,12,01,329.70
2014,07,05,12,02,328.00
2014,07,05,12,03,318.90
2014,07,05,12,04,306.60
2014,07,05,12,05,294.00
2014,07,05,12,06,281.20
2014,07,05,12,07,269.60
2014,07,05,12,08,264.60
2014,07,05,12,09,266.70
2014,07,05,12,10,274.30
2014,07,05,12,11,288.50
2014,07,05,12,12,295.60
2014,07,05,12,13,295.20
2014,07,05,12,14,288.30
2014,07,05,12,15,285.00
2014,07,05,12,16,280.80
2014,07,05,12,17,282.20
2014,07,05,12,18,289.30
2014,07,05,12,19,297.00
2014,07,05,12,20,296.50
2014,07,05,12,21,292.50
2014,07,05,12,22,284.00
2014,07,05,12,23,273.50
2014,07,05,12,24,263.40
2014,07,05,12,25,256.20
2014,07,05,12,26,251.60
2014,07,05,12,27,255.30
2014,07,05,12,28,268.30
2014,07,05,12,29,295.70
2014,07,05,12,30,325.70
2014,07,05,12,31,355.40
2014,07,05,12,32,384.60
2014,07,05,12,33,412.90
2014,07,05,12,34,403.00
2014,07,05,12,35,394.30
2014,07,05,12,36,402.10
2014,07,05,12,37,389.20
2014,07,05,12,38,360.80
2014,07,05,12,39,334.60
2014,07,05,12,40,313.30
2014,07,05,12,41,299.20
2014,07,05,12,42,295.00
2014,07,05,12,43,306.50
2014,07,05,12,44,339.20
2014,07,05,12,45,378.00
2014,07,05,12,46,394.00
2014,07,05,12,47,378.90
2014,07,05,12,48,351.00
2014,07,05,12,49,333.80
2014,07,05,12,50,329.40
2014,07,05,12,51,319.10
2014,07,05,12,52,301.40
2014,07,05,12,53,288.00
2014,07,05,12,54,289.70
2014,07,05,12,55,301.20
2014,07,05,12,56,315.40
2014,07,05,12,57,324.40
2014,07,05,12,58,331.30
2014,07,05,12,59,341.90
2014,07,05,13,00,345.80
2014,07,05,13,01,351.40
2014,07,05,13,02,363.70
2014,07,05,13,03,359.50
2014,07,05,13,04,351.30
2014,07,05,13,05,352.10
2014,07,05,13,06,357.20
2014,07,05,13,07,350.30
2014,07,05,13,08,322.00
2014,07,05,13,09,287.70
2014,07,05,13,10,254.30
2014,07,05,13,11,231.50
2014,07,05,13,12,219.50
2014,07,05,13,13,216.00
2014,07,05,13,14,217.00
2014,07,05,13,15,224.60
2014,07,05,13,16,240.90
2014,07,05,13,17,262.40
2014,07,05,13,18,287.00
2014,07,05,13,19,305.80
2014,07,05,13,20,328.80
2014,07,05,13,21,368.30
2014,07,05,13,22,423.00
2014,07,05,13,23,459.50
2014,07,05,13,24,453.40
2014,07,05,13,25,409.30
2014,07,05,13,26,361.20
2014,07,05,13,27,325.70
2014,07,05,13,28,313.20
2014,07,05,13,29,340.50
2014,07,05,13,30,406.10
2014,07,05,13,31,455.50
2014,07,05,13,32,457.00
2014,07,05,13,33,459.60
2014,07,05,13,34,468.80
2014,07,05,13,35,451.50
2014,07,05,13,36,393.30
2014,07,05,13,37,363.80
2014,07,05,13,38,354.10
2014,07,05,13,39,347.30
2014,07,05,13,40,332.00
2014,07,05,13,41,307.00
2014,07,05,13,42,285.40
2014,07,05,13,43,278.60
2014,07,05,13,44,292.60
2014,07,05,13,45,321.80
2014,07,05,13,46,345.90
2014,07,05,13,47,351.20
2014,07,05,13,48,340.80
2014,07,05,13,49,322.60
2014,07,05,13,50,307.70
2014,07,05,13,51,301.70
2014,07,05,13,52,305.30
2014,07,05,13,53,318.90
2014,07,05,13,54,336.70
2014,07,05,13,55,356.50
2014,07,05,13,56,369.20
2014,07,05,13,57,372.00
2014,07,05,13,58,366.70
2014,07,05,13,59,356.10
2014,07,05,14,00,350.60
2014,07,05,14,01,348.00
2014,07,05,14,02,341.60
2014,07,05,14,03,331.40
2014,07,05,14,04,320.30
2014,07,05,14,05,308.30
2014,07,05,14,06,295.00
2014,07,05,14,07,286.70
2014,07,05,14,08,287.20
2014,07,05,14,09,288.00
2014,07,05,14,10,287.20
2014,07,05,14,11,291.00
2014,07,05,14,12,296.50
2014,07,05,14,13,305.20
2014,07,05,14,14,325.00
2014,07,05,14,15,359.90
2014,07,05,14,16,389.30
2014,07,05,14,17,407.80
2014,07,05,14,18,412.80
2014,07,05,14,19,411.90
2014,07,05,14,20,402.60
2014,07,05,14,21,414.20
2014,07,05,14,22,431.20
2014,07,05,14,23,466.50
2014,07,05,14,24,531.60
2014,07,05,14,25,586.90
2014,07,05,14,26,595.30
2014,07,05,14,27,567.40
2014,07,05,14,28,568.50
2014,07,05,14,29,524.10
2014,07,05,14,30,517.30
2014,07,05,14,31,513.00
2014,07,05,14,32,501.00
2014,07,05,14,33,519.60
2014,07,05,14,34,556.10
2014,07,05,14,35,546.90
2014,07,05,14,36,539.20
2014,07,05,14,37,572.60
2014,07,05,14,38,573.10
2014,07,05,14,39,509.20
2014,07,05,14,40,473.50
2014,07,05,14,41,457.40
2014,07,05,14,42,467.60
2014,07,05,14,43,502.80
2014,07,05,14,44,523.50
2014,07,05,14,45,508.30
2014,07,05,14,46,492.90
2014,07,05,14,47,496.00
2014,07,05,14,48,497.30
2014,07,05,14,49,477.00
2014,07,05,14,50,438.60
2014,07,05,14,51,411.20
2014,07,05,14,52,396.30
2014,07,05,14,53,389.70
2014,07,05,14,54,377.30
2014,07,05,14,55,358.20
2014,07,05,14,56,349.60
2014,07,05,14,57,364.40
2014,07,05,14,58,401.10
2014,07,05,14,59,458.70
2014,07,05,15,00,542.80
2014,07,05,15,01,571.00
2014,07,05,15,02,494.00
2014,07,05,15,03,420.80
2014,07,05,15,04,370.30
2014,07,05,15,05,344.00
2014,07,05,15,06,345.30
2014,07,05,15,07,350.00
2014,07,05,15,08,346.40
2014,07,05,15,09,341.80
2014,07,05,15,10,354.40
2014,07,05,15,11,373.30
2014,07,05,15,12,402.30
2014,07,05,15,13,445.50
2014,07,05,15,14,494.00
2014,07,05,15,15,512.00
2014,07,05,15,16,501.60
2014,07,05,15,17,471.60
2014,07,05,15,18,430.50
2014,07,05,15,19,404.50
2014,07,05,15,20,366.00
2014,07,05,15,21,323.40
2014,07,05,15,22,300.00
2014,07,05,15,23,303.00
2014,07,05,15,24,319.30
2014,07,05,15,25,335.20
2014,07,05,15,26,340.60
2014,07,05,15,27,338.30
2014,07,05,15,28,323.20
2014,07,05,15,29,307.60
2014,07,05,15,30,292.30
2014,07,05,15,31,286.10
2014,07,05,15,32,286.10
2014,07,05,15,33,287.60
2014,07,05,15,34,296.00
2014,07,05,15,35,313.50
2014,07,05,15,36,330.00
2014,07,05,15,37,348.20
2014,07,05,15,38,364.80
2014,07,05,15,39,373.00
2014,07,05,15,40,371.20
2014,07,05,15,41,369.00
2014,07,05,15,42,375.00
2014,07,05,15,43,394.20
2014,07,05,15,44,417.90
2014,07,05,15,45,428.50
2014,07,05,15,46,424.00
2014,07,05,15,47,431.70
2014,07,05,15,48,446.00
2014,07,05,15,49,512.00
2014,07,05,15,50,599.20
2014,07,05,15,51,617.00
2014,07,05,15,52,496.30
2014,07,05,15,53,537.00
2014,07,05,15,54,537.00
2014,07,05,15,55,502.00
2014,07,05,15,56,490.30
2014,07,05,15,57,474.10
2014,07,05,15,58,474.10
2014,07,05,15,59,461.00
2014,07,05,16,00,434.70
2014,07,05,16,01,407.80
2014,07,05,16,02,387.80
2014,07,05,16,03,378.90
2014,07,05,16,04,382.20
2014,07,05,16,05,383.40
2014,07,05,16,06,410.50
2014,07,05,16,07,438.80
2014,07,05,16,08,446.50
2014,07,05,16,09,465.70
2014,07,05,16,10,474.30
2014,07,05,16,11,467.30
2014,07,05,16,12,442.80
2014,07,05,16,13,430.70
2014,07,05,16,14,421.30
2014,07,05,16,15,417.50
2014,07,05,16,16,408.30
2014,07,05,16,17,403.00
2014,07,05,16,18,401.30
2014,07,05,16,19,386.90
2014,07,05,16,20,369.00
2014,07,05,16,21,355.60
2014,07,05,16,22,353.00
2014,07,05,16,23,360.20
2014,07,05,16,24,374.70
2014,07,05,16,25,393.30
2014,07,05,16,26,417.20
2014,07,05,16,27,444.30
2014,07,05,16,28,459.90
2014,07,05,16,29,504.00
2014,07,05,16,30,504.00
2014,07,05,16,31,575.50
2014,07,05,16,32,681.90
2014,07,05,16,33,696.00
2014,07,05,16,34,696.00
2014,07,05,16,35,696.00
2014,07,05,16,36,510.90
2014,07,05,16,37,472.30
2014,07,05,16,38,444.20
2014,07,05,16,39,409.70
2014,07,05,16,40,375.60
2014,07,05,16,41,343.80
2014,07,05,16,42,389.30
2014,07,05,16,43,435.80
2014,07,05,16,44,489.40
2014,07,05,16,45,478.50
2014,07,05,16,46,550.00
2014,07,05,16,47,550.00
2014,07,05,16,48,550.00
2014,07,05,16,49,527.00
2014,07,05,16,50,501.10
2014,07,05,16,51,518.10
2014,07,05,16,52,527.00
2014,07,05,16,53,527.00
2014,07,05,16,54,527.00
2014,07,05,16,55,502.70
2014,07,05,16,56,447.80
2014,07,05,16,57,490.00
2014,07,05,16,58,389.90
2014,07,05,16,59,308.00
2014,07,05,17,00,324.00
2014,07,05,17,01,373.10
2014,07,05,17,02,339.00
2014,07,05,17,03,360.80
2014,07,05,17,04,348.00
2014,07,05,17,05,352.80
2014,07,05,17,06,359.50